Location: Москва
(55.7518°N, 37.5952°E)
Time: 05:37:53
(UTC+03:00)

ISS - Pass Details

Date: 02 February 2021
Orbit: 417 x 422 km, 51.6° (Epoch: 17 May)

Event Time Altitude Azimuth Distance (km) Brightness Sun altitude
Rises 18:17:33 0° 271° (W) 2,375 1.8 -10.1°
Reaches altitude 10° 18:19:48 10° 260° (W) 1,510 0.7 -10.4°
Maximum altitude 18:22:47 29° 199° (SSW) 810 -2.0 -10.8°
Drops below altitude 10° 18:25:45 10° 137° (SE) 1,509 -1.2 -11.2°
Enters shadow 18:26:41 - 131° (SE) 1,852 -0.8 -11.4°
